This is the latest recevied weather packets stored in our database for station/object WC4PEM-12. If no packets are shown the sender has not sent any weather packets the latest 10 day(s).
| Time | Temp. | Humidity | Pressure | Rain* | Wind** | Luminosity | Snow |
|---|---|---|---|---|---|---|---|
| 1778169960 | 30.56° C | 63% | 1016 hPa | 0 mm | - | - | - |
| 1778169769 | 30.56° C | 63% | 1016 hPa | 0 mm | - | - | - |
| 1778169655 | 30° C | 63% | 1016.1 hPa | 0 mm | - | - | - |
| 1778169469 | 30° C | 63% | 1016.1 hPa | 0 mm | - | - | - |
| 1778169307 | 30° C | 65% | 1016.1 hPa | 0 mm | - | - | - |
| 1778169285 | 30° C | 63% | 1016.2 hPa | 0 mm | - | - | - |
| 1778169170 | 30° C | 63% | 1016.2 hPa | 0 mm | - | - | - |
| 1778168869 | 30° C | 65% | 1016.1 hPa | 0 mm | - | - | - |
| 1778168614 | 30° C | 64% | 1016.2 hPa | 0 mm | - | - | - |
| 1778168570 | 30° C | 64% | 1016.2 hPa | 0 mm | - | - | - |
| 1778168270 | 29.44° C | 67% | 1016.2 hPa | 0 mm | - | - | - |
| 1778167969 | 29.44° C | 67% | 1016.2 hPa | 0 mm | - | - | - |
| 1778167669 | 29.44° C | 66% | 1016.4 hPa | 0 mm | - | - | - |
| 1778167369 | 28.89° C | 67% | 1016.4 hPa | 0 mm | - | - | - |
| 1778167069 | 28.89° C | 67% | 1016.4 hPa | 0 mm | - | - | - |
| 1778166941 | 28.89° C | 66% | 1016.4 hPa | 0 mm | - | - | - |
| 1778166769 | 28.89° C | 66% | 1016.4 hPa | 0 mm | - | - | - |
| 1778166469 | 28.89° C | 67% | 1016.4 hPa | 0 mm | - | - | - |
| 1778166291 | 28.89° C | 66% | 1016.4 hPa | 0 mm | - | - | - |
| 1778166169 | 28.89° C | 66% | 1016.4 hPa | 0 mm | - | - | - |
| 1778165870 | 28.89° C | 67% | 1016.6 hPa | 0 mm | - | - | - |
| 1778165570 | 28.33° C | 68% | 1016.4 hPa | 0 mm | - | - | - |
| 1778165270 | 28.33° C | 68% | 1016.4 hPa | 0 mm | - | - | - |
| 1778165097 | 28.33° C | 69% | 1016.4 hPa | 0 mm | - | - | - |
| 1778164970 | 28.33° C | 69% | 1016.4 hPa | 0 mm | - | - | - |
* Rain latest hour (hover to see other rain measurements)
** Current wind speed in m/s (hover to see current wind gust speed)